SCP
0 1 1 1 1 1 1 1 1 1 1 1 1 1 1 2 2 2 2 2 2 2 2 1 1 1 1 1 1 1 1 1 1 1 1 1 1 1 1 1 1 1 1
0 0 1 1 1 1 1 1 1 1 1 1 1 1 2 2 2 2 2 3 2 2 2 1 1 1 1 1 1 1 1 1 1 1 1 1 1 1 1 1 1 1 1
0 0 0 1 1 1 1 1 1 1 1 1 1 1 1 1 1 1 2 2 2 2 1 1 1 1 1 1 1 1 1 1 1 1 1 1 1 1 1 1 1 1 1
0 0 0 1 1 1 1 1 1 1 1 1 1 1 1 1 1 1 1 1 1 1 1 1 1 1 1 1 1 1 1 1 1 1 1 1 1 1 1 1 1 1 1
1 1 1 1 1 1 1 2 2 2 2 1 1 1 1 1 1 1 1 1 1 1 1 1 1 1 1 1 1 1 2 2 2 1 1 1 1 1 1 1 1 1 1
1 1 1 1 2 2 2 3 3 2 2 1 1 1 1 1 1 1 1 1 1 1 1 1 1 1 1 1 1 2 2 2 2 2 2 1 1 1 1 1 1 1 1
1 1 2 2 3 3 3 4 4 3 2 1 1 1 1 1 2 2 2 2 2 1 1 1 1 1 1 1 1 1 1 2 2 2 2 1 1 2 2 1 1 1 1
1 2 2 3 3 4 5 5 4 2 1 1 1 1 1 1 2 2 2 2 1 1 1 1 1 1 1 1 1 1 1 1 2 2 1 1 1 1 1 1 1 1 1
2 2 3 4 4 5 5 5 3 2 2 1 1 2 2 2 2 2 1 1 1 1 1 1 1 1 1 1 1 2 1 1 1 1 1 1 1 1 1 1 1 1 1
2 3 4 4 5 5 5 5 3 3 2 2 1 2 2 2 2 1 1 1 1 1 1 1 1 1 1 1 2 2 1 1 1 1 1 1 2 1 1 1 1 1 1
2 2 3 4 5 5 5 4 3 3 2 2 2 2 2 2 2 1 1 1 1 1 1 1 1 1 1 1 2 2 1 1 1 1 1 2 2 2 2 1 1 1 1
1 2 2 3 4 4 3 3 2 2 2 2 2 2 2 2 2 2 1 1 1 0 0 1 1 1 1 1 1 2 2 6 9 6 1 2 2 2 2 1 1 1 1
2 2 2 2 3 3 3 2 2 2 2 2 2 2 2 2 2 2 1 1 1 0 0 0 1 1 1 1 1 2 2 9 17 9 1 1 1 1 1 1 1 1 1
3 3 3 3 3 3 3 3 3 2 3 2 2 2 2 2 2 2 1 1 1 1 0 0 0 1 1 1 1 1 1 6 9 6 1 1 1 1 1 1 1 1 1
4 4 4 4 5 5 4 4 3 3 3 3 2 2 2 2 2 2 1 1 1 1 1 0 0 1 1 1 1 1 1 1 1 1 1 0 0 1 1 1 1 1 1
5 4 4 5 6 6 6 5 4 4 3 3 3 3 3 3 2 2 1 1 2 2 1 1 1 1 1 1 1 1 1 1 1 1 0 0 0 0 0 1 1 1 0
4 4 4 5 6 7 7 6 5 4 3 3 3 3 3 3 3 2 2 2 2 2 2 1 1 1 1 2 2 1 1 1 1 1 0 0 0 0 0 0 0 0 0
4 4 4 5 6 7 7 6 5 4 3 3 3 3 3 2 2 2 3 3 3 2 2 1 1 1 2 2 2 2 1 1 1 0 0 0 0 0 0 0 0 0 0
4 4 4 4 6 7 8 7 6 4 3 3 3 3 2 2 2 2 2 3 3 3 2 2 2 1 1 1 1 1 1 1 1 1 0 0 0 0 0 0 0 0 0
3 4 4 4 5 6 7 8 7 5 3 3 3 2 2 2 2 1 2 2 3 3 3 2 2 2 1 1 1 1 1 1 1 1 1 1 1 0 0 0 0 0 0
4 4 4 4 4 5 6 7 7 5 4 3 2 2 1 2 1 1 1 1 2 2 3 3 2 1 1 0 0 0 0 1 1 1 1 1 1 0 0 0 0 0 0
5 5 4 4 4 4 5 6 7 5 4 2 1 1 1 1 1 1 1 1 2 2 3 3 2 1 1 0 0 0 1 1 0 1 1 1 1 1 0 0 0 0 0
6 5 5 4 3 3 3 4 5 6 4 2 1 1 1 1 1 1 1 1 2 2 2 2 2 1 1 0 0 0 1 1 0 0 1 1 1 0 0 0 0 0 0
7 7 6 4 3 3 2 2 4 5 5 3 2 1 1 1 1 1 1 1 2 2 2 2 2 2 1 0 0 0 0 0 0 0 0 0 0 0 0 0 0 0 0
10 9 8 5 3 2 2 2 2 4 5 4 2 1 1 1 1 1 2 2 2 2 2 2 2 1 1 0 0 0 0 0 0 0 0 0 0 0 0 0 0 0 0
12 11 9 6 4 2 2 1 2 3 4 4 3 1 1 1 1 1 2 2 2 2 2 2 2 1 1 0 0 0 0 0 0 0 0 0 0 0 0 0 0 0 0
Wind_Speed
2 1 1 1 2 2 2 2 2 3 3 3 3 4 4 4 4 4 3 8 9 9 10 10 11 10 10 9 10 10 11 11 11 12 12 13 13 13 13 12 12 12 12
2 2 1 1 1 1 2 2 2 2 2 2 3 3 4 3 4 4 4 5 8 9 9 10 11 10 10 10 10 11 11 11 11 12 12 13 13 13 13 12 12 11 11
2 2 1 1 2 1 1 1 1 1 1 2 2 3 3 3 3 4 4 3 4 7 8 10 10 10 9 10 10 10 10 10 10 10 11 12 12 12 12 12 12 12 11
2 1 1 1 2 1 1 1 1 1 1 1 2 2 2 2 3 4 3 3 3 3 5 8 9 9 9 9 9 10 10 9 9 9 10 11 12 12 12 12 12 12 11
2 2 1 2 1 0 0 1 1 1 1 2 2 2 2 2 3 3 3 3 3 3 3 5 8 8 9 9 9 9 9 9 9 9 9 9 10 10 10 11 11 11 11
1 1 1 1 1 0 0 0 1 1 1 1 2 2 2 2 2 2 3 3 3 4 4 4 3 5 8 8 7 8 8 8 9 9 9 9 9 10 10 10 10 11 11
1 1 1 0 0 1 1 1 1 0 1 0 1 2 2 1 1 2 2 2 2 3 3 3 2 2 2 5 6 6 7 8 8 8 8 9 9 9 9 10 10 10 11
1 1 1 1 0 0 0 0 0 0 1 0 1 1 2 3 2 1 1 2 2 2 2 3 2 2 2 1 3 5 6 7 8 8 8 8 9 8 9 9 9 10 10
1 1 1 1 0 1 1 1 0 1 1 1 1 2 2 2 2 2 2 1 1 1 2 1 2 3 3 2 2 4 4 5 7 8 7 8 8 8 8 9 9 10 10
0 1 1 1 1 0 0 1 0 1 1 1 1 1 2 3 1 2 2 2 1 1 2 2 2 2 2 2 3 3 4 5 5 6 7 7 8 8 8 9 9 10 10
0 0 1 1 0 0 0 1 0 0 1 2 1 1 1 0 1 2 2 3 2 2 1 1 1 1 1 2 2 3 5 4 4 4 5 7 8 8 8 8 9 9 10
1 1 1 1 0 0 0 1 1 0 1 1 1 0 1 1 1 1 2 2 2 3 2 1 0 0 1 1 2 2 4 4 4 5 5 5 6 6 7 8 8 8 9
1 2 1 0 0 1 0 0 0 1 1 0 1 1 1 1 1 2 2 1 1 2 2 1 1 1 1 1 2 2 3 4 5 5 5 6 5 5 6 7 8 7 7
2 2 1 1 1 0 0 0 0 1 1 1 1 1 1 1 1 1 2 2 1 2 2 2 1 1 1 1 2 3 2 3 4 4 5 5 6 6 5 6 6 6 6
1 1 1 1 1 1 1 0 0 1 1 1 1 1 1 1 1 1 1 2 3 1 2 2 2 2 2 2 3 2 2 3 3 4 5 5 6 6 5 5 6 5 5
1 0 0 1 1 1 1 0 1 1 1 1 1 1 1 1 1 1 1 1 2 3 2 2 2 2 2 2 2 2 2 3 4 4 4 5 6 5 5 5 5 5 5
1 1 1 1 1 1 1 0 1 1 1 1 1 1 2 1 1 1 1 0 1 2 2 2 2 1 1 2 2 2 2 2 3 4 5 5 5 5 5 5 5 5 5
1 1 1 0 0 1 1 0 1 1 1 1 2 1 2 2 2 1 1 1 1 1 2 2 2 1 2 2 2 2 2 2 2 4 4 4 4 5 5 5 5 5 5
0 0 1 1 0 1 1 1 1 1 1 2 2 2 2 2 2 2 1 1 1 1 1 1 2 1 1 2 1 2 2 2 3 3 3 3 4 4 4 4 4 5 4
1 1 1 1 1 1 1 1 1 1 2 2 2 2 2 2 2 2 1 1 1 0 0 1 1 2 1 2 1 1 2 2 2 2 2 2 3 3 3 4 4 4 4
1 1 1 1 1 1 1 1 1 1 1 2 2 2 1 2 2 1 1 1 1 1 1 1 1 1 1 1 1 1 1 2 3 1 1 2 2 2 3 3 3 3 3
1 1 1 1 1 1 2 2 1 1 1 1 2 2 2 2 2 2 2 1 1 2 2 1 1 1 2 2 1 1 1 1 2 2 1 2 1 2 2 1 2 2 3
2 2 2 1 1 2 2 1 1 0 1 2 2 2 2 2 2 2 3 3 2 2 3 3 2 3 3 3 2 1 2 2 3 2 0 2 2 2 2 2 3 2 2
2 2 2 1 1 2 2 1 1 1 1 2 2 2 2 2 1 1 1 2 3 3 3 2 3 3 3 3 3 3 3 2 2 1 1 1 1 2 3 2 3 3 3
2 2 2 2 2 3 3 2 1 1 1 2 2 1 1 2 3 2 1 2 3 4 4 3 3 2 2 2 1 1 1 1 1 2 0 1 1 1 2 2 2 3 4
2 2 1 2 2 3 3 3 2 1 1 2 2 2 3 2 3 2 2 2 3 4 3 3 3 3 2 2 1 2 3 2 1 2 2 1 1 1 2 2 2 2 2
Wind_Direction
190 203 218 223 227 225 220 220 231 236 239 238 235 225 226 220 211 214 223 226 227 228 223 220 223 224 223 223 225 225 229 229 227 228 228 230 233 234 234 232 231 231 234
187 192 210 226 236 227 221 209 219 226 229 227 234 227 221 211 211 213 215 223 225 227 224 221 223 225 228 228 229 231 234 235 232 231 232 231 232 235 235 234 234 234 234
182 189 203 227 238 232 222 208 223 225 233 240 245 237 221 215 212 217 218 222 229 232 229 224 221 226 230 232 233 232 231 233 233 231 231 230 231 234 237 236 237 237 235
186 179 193 232 244 237 212 204 201 230 257 256 254 249 234 223 221 221 220 222 226 232 235 233 226 228 233 237 235 232 230 228 229 229 228 229 233 233 233 235 240 238 235
187 175 199 229 229 215 217 231 185 197 240 272 263 251 239 225 223 226 223 226 225 223 224 236 227 229 236 240 237 237 234 230 229 232 230 230 233 231 231 234 238 236 233
183 169 191 235 216 152 303 260 229 246 236 258 279 292 261 240 228 231 230 229 227 223 218 230 230 236 235 237 239 238 237 236 232 231 232 233 233 232 233 234 235 232 231
175 164 173 222 222 181 215 222 197 266 285 297 26 343 331 299 240 235 236 227 238 233 214 219 218 222 236 232 232 236 243 244 238 231 232 236 236 235 234 234 233 233 232
186 169 164 194 198 148 3 1 118 198 305 79 135 70 344 338 321 265 261 232 244 243 228 218 207 214 226 228 229 228 240 246 242 234 232 234 234 236 237 237 237 237 234
187 169 150 152 135 151 221 266 168 160 254 293 179 155 165 245 299 312 286 261 256 241 247 229 208 221 217 214 228 233 234 245 243 238 236 235 234 235 237 240 242 240 237
170 163 142 140 148 158 220 259 166 199 186 260 284 234 198 182 186 295 315 306 288 256 255 252 234 223 216 213 216 213 222 239 241 244 243 241 239 238 239 242 245 244 240
269 176 131 124 174 212 248 288 311 210 185 203 225 247 266 322 180 180 277 306 320 298 269 252 258 242 232 225 224 225 221 232 241 244 249 248 244 244 245 247 249 251 248
300 300 174 179 203 243 283 269 268 243 208 190 192 180 184 198 221 189 224 273 290 290 294 270 221 203 248 249 243 228 222 227 239 241 248 253 251 249 249 250 252 256 254
273 263 247 215 227 245 257 303 336 310 276 222 194 214 221 230 205 185 179 235 277 295 315 314 259 229 225 237 260 258 241 236 241 243 246 248 251 254 255 251 252 257 260
220 228 227 215 211 238 274 243 316 305 324 287 288 239 235 259 218 193 182 175 252 310 319 294 294 256 246 232 249 262 275 266 257 249 245 249 254 256 258 257 255 257 264
208 208 214 203 219 234 258 214 257 280 308 295 293 295 288 280 270 238 195 174 170 214 275 278 281 276 262 246 254 256 257 270 260 250 245 250 254 254 254 253 253 256 261
230 185 168 194 233 263 281 244 276 285 324 319 319 336 312 292 300 289 229 204 179 178 222 257 258 272 282 287 289 273 261 272 259 255 245 246 245 243 248 253 255 255 256
193 184 205 200 215 250 272 266 283 299 318 321 320 306 288 281 297 295 275 219 193 169 203 266 273 291 305 301 310 298 282 273 269 259 256 251 244 244 249 253 255 254 253
209 177 159 172 251 283 282 245 276 293 285 292 296 308 302 308 306 291 276 255 241 207 184 245 288 303 287 280 291 298 299 295 282 277 273 268 259 253 254 251 251 248 247
173 168 141 156 259 284 279 265 252 274 269 264 262 267 280 290 293 297 289 258 248 260 181 203 271 286 285 295 317 312 308 298 291 293 289 284 276 272 264 256 252 244 244
157 174 194 227 244 256 263 273 267 267 281 281 273 267 276 264 254 263 272 258 228 211 243 229 272 290 289 294 320 310 321 315 304 306 316 305 312 309 292 286 272 253 243
182 191 199 266 276 265 283 287 266 265 279 294 305 302 302 316 300 256 256 243 211 190 209 242 270 296 296 307 288 272 287 303 303 306 328 318 322 323 309 298 286 262 249
193 182 206 231 262 286 326 334 338 290 273 270 284 289 298 310 326 319 309 272 192 191 203 205 231 249 253 247 249 264 263 326 304 303 331 303 316 292 287 274 290 285 270
192 201 221 227 259 291 331 351 15 243 243 250 253 269 296 318 336 333 329 331 296 261 200 189 208 234 236 233 210 224 220 222 243 258 334 295 313 295 292 294 297 300 290
212 215 219 230 264 308 329 308 297 257 255 270 257 241 254 284 310 330 312 315 301 293 267 220 216 233 232 222 205 208 213 238 277 280 123 243 297 296 304 306 299 312 306
236 228 200 199 236 277 289 265 243 265 286 288 280 263 244 255 284 273 253 292 303 302 297 297 283 266 277 264 183 113 84 97 307 283 264 164 268 312 317 309 314 321 310
229 231 230 229 231 256 273 260 214 191 267 286 295 288 280 288 291 257 211 226 269 280 299 316 320 315 302 291 229 171 173 168 191 264 260 174 269 9 330 308 305 314 324